#timestamp,LO_Frequency,Hit 
1502503215.1,286047010.7,N
1502503235.9,286047010.4,N
1502503255.7,286047007.2,N
1502503275.5,286047003.0,N
1502503295.4,286047003.9,N
1502503315.2,286047007.1,N
1502503335.0,286047006.9,N
1502503335.9,286047006.9,N
1502503355.8,286047004.9,N
1502503375.6,286047005.7,N
1502503395.4,286047003.6,N
1502503415.3,286047004.6,N
1502503435.1,286047007.1,N
1502503436.0,286047007.1,N
1502503455.8,286047007.3,N
1502503475.7,286047008.9,N
1502503495.5,286047008.3,N
1502503515.3,286047009.9,P
1502503535.2,286047001.4,N
1502503555.9,286047001.6,N
1502503575.7,286047003.1,N
1502503595.6,286047007.5,N
1502503615.4,286047004.5,N
1502503635.2,286047005.3,N
1502503655.1,286047006.0,N
1502503656.0,286047006.0,N
1502503675.8,286047004.3,N
1502503695.6,286047005.9,N
1502503715.4,286047004.0,N
1502503735.3,286047003.6,N
1502503755.1,286047005.6,N
1502503775.8,286047001.7,N
1502503795.7,286047001.0,N
1502503815.5,286047001.0,N
1502503835.3,286047000.4,N
1502503855.2,286047002.7,N
1502503875.9,286047001.9,N
1502503895.7,286047005.2,N
1502503915.6,286047005.9,N
1502503935.4,286047005.8,N
1502503955.2,286047000.1,N
1502503975.1,286046999.0,N
1502503976.0,286046999.0,N
1502503995.8,286047001.2,N
1502504015.6,286046999.2,N
1502504035.4,286046996.6,N
1502504055.3,286046997.6,N
1502504075.1,286046997.7,N
1502504095.8,286046997.8,N
1502504115.7,286046999.3,N
1502504135.5,286046999.0,N
1502504155.3,286046998.3,N
1502504175.2,286046997.4,N
1502504195.9,286047000.5,N
1502504215.7,286047000.6,N
1502504235.6,286047000.2,N
1502504255.4,286047002.8,N
1502504275.2,286046999.3,N
1502504295.1,286046997.8,N
1502504296.0,286046997.8,N
1502504315.8,286046997.8,N
1502504335.6,286046998.6,N
1502504355.5,286046999.3,N
1502504375.3,286046995.4,N
1502504395.1,286046999.8,N
1502504415.8,286047006.0,N
1502504435.7,286047003.5,N
1502504455.5,286047001.4,N
1502504475.3,286047000.6,N
1502504495.2,286047001.5,N
1502504515.9,286047002.7,N
1502504535.7,286047000.0,N
1502504555.6,286047000.4,N
1502504575.4,286046999.5,N
1502504595.2,286046997.8,N
1502504615.1,286046994.7,N
1502504616.0,286046994.7,N
1502504635.8,286046993.7,N
1502504655.6,286046997.8,N
1502504675.5,286046997.0,N
1502504695.3,286046997.9,N
1502504715.1,286046994.2,N
1502504735.9,286046994.8,N
1502504755.7,286046994.9,N
1502504775.5,286046995.2,N
1502504795.3,286046997.6,N
1502504815.2,286046997.2,N
1502504835.0,286046997.6,N
1502504835.9,286046997.6,N
1502504855.7,286046997.7,N
1502504875.6,286046995.2,N
1502504895.4,286046997.8,N
1502504915.2,286046997.4,N
1502504935.1,286046995.6,N
1502504936.0,286046995.6,N
1502504955.8,286046993.8,N
1502504975.6,286046992.5,N
1502504995.5,286046990.3,P
1502505015.3,286046996.3,N
1502505035.1,286046994.2,N
1502505055.9,286046994.0,N
1502505075.7,286046991.9,P
1502505095.5,286047000.1,N
1502505115.4,286046999.9,N
1502505135.2,286047002.2,N
1502505155.0,286047000.3,N
1502505155.9,286047000.3,N
1502505175.8,286047001.1,N
1502505195.6,286046999.1,N
1502505215.4,286046992.5,N
1502505235.3,286046991.7,N
1502505255.1,286046992.1,N
1502505256.0,286046992.1,N
1502505275.8,286046993.3,N
1502505295.7,286046997.1,N
1502505315.5,286047000.5,N
1502505335.3,286047000.2,N
1502505355.1,286047002.6,N
1502505375.9,286047000.8,N
1502505395.7,286047001.2,N
1502505415.5,286047001.3,N
1502505435.4,286047004.2,N
1502505455.2,286047005.3,N
1502505475.0,286047006.8,N
1502505475.9,286047006.8,N
1502505495.8,286047011.8,N
1502505515.6,286047012.1,N
1502505535.4,286047009.7,N
1502505555.3,286047010.5,N
1502505575.1,286047010.0,N
1502505576.0,286047010.0,N
1502505595.8,286047012.0,N
1502505615.7,286047008.7,N
1502505635.5,286047007.7,N
1502505655.3,286047010.6,N
1502505675.1,286047007.8,N
1502505695.9,286047010.8,N
1502505715.7,286047009.3,N
1502505735.5,286047008.5,N
1502505755.4,286047009.1,N
1502505775.2,286047011.9,N
1502505795.0,286047009.8,N
1502505795.9,286047009.8,N
1502505815.7,286047011.7,N
1502505835.6,286047015.5,P
1502505855.4,286047001.3,N
1502505875.3,286047004.0,N
1502505895.1,286047007.5,N
1502505896.0,286047007.5,N
1502505915.8,286047005.3,N
1502505935.7,286047007.3,N
1502505955.5,286047008.5,N
1502505975.3,286047008.0,N
1502505995.1,286047007.4,N
1502506015.9,286047006.4,N
1502506035.7,286047004.8,N
1502506055.5,286047003.3,N
1502506075.4,286047004.4,N
1502506095.2,286047005.1,N
1502506115.0,286047003.5,N
1502506115.9,286047003.5,N
1502506135.8,286047001.0,N
1502506155.6,286046999.8,N
1502506175.4,286047001.6,N
1502506195.3,286047003.2,N
1502506215.1,286047006.9,N
1502506216.0,286047006.9,N
1502506235.8,286047008.0,N
1502506255.7,286047008.3,N
1502506275.5,286047005.9,N
1502506295.3,286047007.5,N
1502506315.1,286047005.3,N
1502506335.9,286047003.9,N
1502506355.7,286047002.0,N
1502506375.5,286047001.7,N
1502506395.4,286047005.8,N
1502506415.2,286047005.2,N
1502506435.0,286047003.7,N
1502506435.9,286047003.7,N
1502506455.8,286047000.3,N
1502506475.6,286047002.7,N
1502506495.4,286046999.8,N
1502506515.3,286046999.3,N
1502506535.1,286046998.4,N
1502506536.0,286046998.4,N
1502506555.8,286047005.5,N
1502506575.7,286047001.9,N
1502506595.5,286047000.7,N
1502506615.3,286047000.9,N
1502506635.2,286046996.8,N
1502506655.9,286046995.0,N
1502506675.7,286046997.4,N
1502506695.5,286046999.1,N
1502506715.4,286046996.4,N
1502506735.2,286046995.8,N
1502506755.0,286046995.9,N
1502506755.9,286046995.9,N
1502506775.8,286046997.7,N
1502506795.6,286046995.3,N
